Wind_Speed
6 6 6 5 4 4 4 3 2 1 1 1 2 2 4 4 4 4 4 5 6 5 6 6 6 7 7 7 7 7 7 8 8 8 7 8 7 7 7 8 8 8 9
5 5 5 4 4 3 2 2 2 1 1 2 2 2 2 3 4 5 6 6 6 6 7 7 8 8 9 9 9 9 9 9 9 9 9 9 10 9 9 9 10 10 10
4 4 4 3 3 3 2 2 2 3 2 3 3 3 3 4 5 6 7 7 7 7 8 9 9 10 10 10 11 10 11 11 11 11 11 11 11 11 11 11 11 11 12
5 4 3 2 2 2 2 2 2 2 3 3 3 3 4 5 6 7 7 7 8 9 9 9 10 10 10 11 11 12 12 12 12 12 12 12 12 12 12 12 12 12 12
4 4 3 2 2 2 2 3 3 3 4 4 4 5 6 6 7 8 8 8 9 9 9 10 11 11 11 12 12 12 13 13 13 13 13 13 13 13 13 13 13 13 13
4 4 3 3 3 3 2 3 4 4 4 5 6 6 7 7 8 8 8 8 9 9 9 10 11 11 12 12 12 13 13 14 14 14 14 14 14 14 14 14 14 14 14
3 4 4 3 4 4 3 4 5 5 5 5 6 7 7 8 8 9 9 9 9 10 10 11 11 12 12 13 13 13 14 14 14 15 15 15 14 14 14 15 14 14 15
4 4 4 4 4 5 5 5 6 6 6 7 7 8 9 9 9 10 9 10 10 11 11 11 12 13 13 13 13 14 14 15 15 14 15 16 16 16 16 16 16 16 16
4 4 5 5 5 6 6 6 7 8 8 8 9 9 9 9 10 10 10 10 11 11 11 12 12 12 12 12 13 14 15 16 16 16 16 16 16 16 16 17 17 17 17
5 5 6 6 6 6 7 7 8 8 9 9 9 9 10 10 10 11 11 11 11 11 12 11 11 11 11 11 12 12 13 14 13 14 16 16 16 16 16 16 16 17 17
6 6 6 7 7 7 7 8 8 9 10 10 10 10 11 10 11 11 11 12 12 13 12 12 12 12 12 11 12 12 13 13 13 14 15 15 16 16 16 16 16 16 17
6 6 7 8 8 8 9 9 9 10 11 11 11 11 11 11 11 12 12 12 13 13 13 13 12 12 12 12 12 13 13 13 13 14 14 14 14 15 15 16 16 17 17
7 7 8 8 8 9 10 10 10 11 11 11 11 11 11 11 11 12 12 12 12 13 13 13 13 12 13 12 13 13 13 13 14 14 14 14 14 15 15 16 17 18 19
7 8 8 9 9 9 10 10 10 11 12 12 11 11 11 11 12 12 12 12 13 13 14 14 13 13 13 13 14 14 14 14 15 15 15 16 16 15 15 16 17 18 19
8 9 9 9 10 10 10 10 11 11 12 12 12 11 11 12 12 12 13 13 13 14 15 15 14 14 13 14 14 14 15 15 15 16 16 16 16 16 16 16 17 18 19
8 9 9 10 10 10 10 11 11 11 12 12 12 12 13 13 13 13 13 14 14 15 15 15 15 15 15 15 15 15 15 15 16 16 16 16 16 16 17 17 18 19 20
9 10 10 10 10 10 11 11 11 12 12 12 12 12 13 14 14 14 14 15 15 15 15 16 16 16 16 16 15 15 15 15 16 16 16 17 17 18 18 19 19 20 20
10 11 11 11 11 11 12 12 13 13 13 13 13 14 14 15 15 16 16 16 16 16 16 16 17 17 16 16 15 15 15 16 16 17 17 18 18 19 19 20 21 21 22
11 11 11 11 12 12 13 13 14 14 15 15 15 15 16 16 16 16 17 17 17 17 17 17 17 17 16 16 16 17 17 17 18 18 18 18 19 20 20 21 22 22 23
12 12 12 12 13 13 13 14 14 15 16 16 17 17 18 18 18 17 17 17 17 18 18 17 17 17 17 17 17 18 18 19 20 19 19 19 20 21 22 22 23 23 23
13 14 14 14 14 14 15 15 16 16 17 17 18 18 19 19 19 19 18 18 18 18 18 18 18 18 18 18 18 19 19 20 20 20 21 21 22 22 23 23 23 24 25
15 15 15 15 15 15 16 16 17 17 18 19 19 19 19 20 19 19 19 18 19 19 19 19 19 19 19 19 20 21 21 21 21 21 22 23 23 23 24 25 25 26 26
16 16 16 16 16 17 17 17 18 18 19 19 19 20 20 20 20 20 20 19 19 19 20 20 20 20 21 21 22 22 22 23 23 23 24 25 25 25 25 26 26 27 28
17 17 17 17 17 18 19 19 19 19 19 20 20 20 21 21 21 21 21 21 21 21 21 21 22 22 22 22 23 23 23 24 24 25 26 26 27 27 27 28 28 29 29
18 19 18 18 19 19 20 20 20 20 20 21 21 21 21 22 22 22 23 23 22 22 23 23 24 24 24 24 24 25 25 25 26 27 27 28 28 28 28 29 30 30 30
20 20 21 20 20 20 21 21 21 21 21 21 22 22 22 23 23 23 24 23 23 23 24 24 25 25 25 26 26 26 27 27 28 28 29 29 29 30 29 30 31 31 31
Wind_Direction
100 98 100 99 96 92 91 97 128 153 201 251 239 239 255 259 269 273 274 276 280 277 279 280 275 273 277 275 272 272 273 272 273 273 275 277 275 278 281 279 278 280 283
99 101 102 96 88 82 78 65 45 17 286 264 267 272 271 278 282 280 279 281 281 277 281 280 281 281 279 275 272 272 272 273 274 275 276 275 276 279 282 284 280 278 278
96 101 98 89 81 77 65 31 8 357 332 311 298 296 301 291 291 290 284 282 281 282 282 279 280 279 279 280 276 276 276 275 276 276 276 277 277 277 278 279 277 278 279
80 81 86 77 60 46 31 4 345 344 330 326 315 306 301 295 289 294 292 291 285 282 280 281 282 279 281 282 280 276 275 277 280 281 279 281 280 279 279 277 276 278 277
63 57 53 35 21 13 355 340 332 322 314 309 304 303 303 297 293 293 294 292 287 282 281 284 286 284 283 283 283 280 280 279 280 281 278 279 279 280 279 279 277 277 277
51 42 31 19 14 14 356 341 341 323 311 306 304 302 301 298 297 295 294 295 296 291 288 288 289 288 286 285 285 283 284 281 281 280 280 279 280 281 279 278 278 277 276
32 24 22 22 22 14 356 343 337 331 316 312 310 305 303 304 301 296 294 294 293 292 291 290 289 289 287 283 283 282 281 280 282 279 278 280 279 278 278 278 276 276 277
19 13 8 3 3 360 349 338 332 328 318 316 314 307 303 302 301 298 294 292 293 291 292 293 291 290 289 286 282 282 283 281 280 281 281 278 277 277 277 276 275 277 280
9 6 5 356 343 339 338 333 328 328 321 314 311 306 302 299 298 299 297 294 292 291 293 292 294 294 294 289 287 286 282 281 281 281 283 282 276 277 278 278 276 275 278
11 4 358 353 344 338 337 335 332 328 323 320 313 310 308 306 300 299 299 296 296 294 293 295 298 296 294 293 291 290 287 287 286 287 286 283 279 280 279 280 280 279 280
8 1 350 345 341 337 333 329 328 326 322 320 318 316 312 307 307 307 305 301 300 299 300 303 302 300 297 298 298 297 296 292 289 291 288 285 282 281 279 279 280 282 284
2 356 350 345 341 338 335 328 326 325 320 319 317 316 315 312 308 307 306 305 303 304 305 305 303 300 298 296 297 299 299 298 293 293 292 289 287 286 284 280 281 283 286
354 350 347 344 341 338 336 332 326 326 324 321 316 315 314 313 311 309 307 305 303 305 307 307 305 302 302 299 298 298 298 298 297 298 298 295 294 292 287 283 285 288 290
350 346 344 344 342 337 335 332 328 325 325 323 319 316 315 312 311 311 308 306 305 304 306 306 304 301 302 300 298 298 296 296 297 298 297 296 294 293 291 288 290 291 292
342 342 339 339 340 339 336 333 330 326 327 325 320 319 317 313 309 308 308 307 306 306 305 307 304 301 302 300 298 296 294 294 297 298 296 296 295 293 291 291 292 294 295
336 333 329 331 332 333 333 332 331 329 327 325 320 320 317 313 313 310 310 309 307 306 306 305 304 303 301 300 298 296 295 296 296 297 297 296 296 294 292 293 294 295 296
333 331 329 328 329 330 330 330 330 328 327 323 320 321 320 316 313 311 311 310 309 306 305 304 303 302 299 298 297 297 297 297 297 295 297 296 295 293 292 293 294 296 297
331 330 329 326 325 326 325 328 330 328 325 322 320 320 318 318 314 313 310 308 308 307 305 305 304 302 298 295 295 296 298 299 298 297 297 297 296 294 293 294 296 298 299
329 329 329 326 323 321 320 323 325 325 324 323 321 319 317 316 315 313 310 309 309 307 307 307 305 302 298 294 294 295 297 299 299 298 298 297 297 297 296 297 297 299 299
331 328 326 322 321 322 322 321 320 321 323 324 323 321 318 317 315 314 312 310 309 308 307 306 304 302 299 296 295 295 295 296 298 298 298 298 299 298 298 298 299 299 300
330 328 326 324 323 323 323 322 322 320 320 320 321 321 319 317 316 315 315 311 309 307 305 304 302 301 299 296 296 295 296 296 296 296 296 297 298 299 298 298 299 299 300
326 324 321 320 322 323 323 322 321 320 319 319 320 319 317 316 315 314 315 312 311 308 304 303 301 299 299 298 297 297 297 296 296 296 296 296 297 297 297 297 298 300 301
323 324 321 320 321 320 320 319 318 318 319 318 318 319 318 317 316 313 313 311 310 308 304 302 301 298 298 298 297 297 297 297 296 296 297 298 298 299 299 298 298 299 301
319 320 318 317 318 319 318 317 316 317 317 317 316 317 317 316 316 314 312 310 308 306 304 303 303 302 300 298 297 297 297 297 296 296 298 299 299 298 298 298 298 299 300
314 315 315 313 315 316 317 316 315 314 314 314 313 313 314 315 315 315 313 309 306 305 304 303 303 301 300 298 297 297 297 297 297 298 299 299 299 299 299 299 299 300 300
310 311 309 308 311 313 314 314 312 311 312 312 312 311 311 311 312 313 313 310 307 306 304 303 303 301 299 298 297 297 297 297 297 298 299 299 299 299 299 300 300 300 301
Height
5885 5886 5886 5886 5887 5887 5887 5888 5888 5888 5888 5888 5889 5889 5889 5889 5890 5890 5890 5890 5890 5890 5889 5889 5889 5888 5888 5888 5888 5888 5887 5887 5887 5886 5886 5886 5885 5885 5885 5884 5884 5884 5884
5887 5887 5887 5887 5888 5888 5888 5888 5888 5888 5888 5888 5888 5888 5888 5889 5889 5889 5889 5888 5888 5888 5888 5888 5887 5887 5887 5886 5886 5886 5886 5885 5885 5885 5884 5884 5883 5883 5883 5882 5882 5881 5881
5888 5888 5888 5888 5888 5888 5888 5888 5888 5888 5888 5888 5888 5888 5888 5888 5888 5888 5887 5887 5887 5886 5886 5886 5885 5885 5885 5884 5884 5884 5883 5883 5883 5882 5882 5881 5881 5881 5880 5880 5879 5879 5879
5889 5889 5889 5889 5889 5889 5889 5889 5889 5888 5888 5888 5888 5888 5887 5887 5887 5886 5886 5885 5885 5885 5884 5884 5883 5883 5882 5882 5881 5881 5881 5880 5880 5880 5879 5879 5878 5878 5877 5877 5876 5876 5876
5890 5890 5890 5889 5889 5889 5889 5889 5889 5888 5888 5888 5887 5887 5886 5886 5885 5885 5884 5883 5883 5883 5882 5882 5881 5880 5880 5879 5878 5878 5878 5877 5877 5877 5876 5876 5875 5875 5874 5874 5874 5873 5873
5891 5890 5890 5890 5889 5889 5889 5889 5888 5888 5887 5887 5887 5886 5885 5885 5884 5884 5883 5882 5881 5881 5880 5879 5879 5878 5877 5877 5876 5875 5875 5874 5874 5873 5873 5872 5872 5871 5871 5870 5870 5870 5869
5891 5891 5891 5890 5890 5889 5889 5889 5888 5887 5887 5886 5886 5885 5884 5883 5883 5882 5881 5880 5879 5879 5878 5877 5876 5875 5874 5874 5873 5872 5871 5871 5870 5870 5869 5869 5868 5868 5867 5867 5866 5866 5866
5892 5891 5891 5890 5890 5890 5889 5889 5888 5887 5886 5885 5885 5884 5883 5883 5881 5880 5879 5878 5877 5876 5875 5874 5873 5872 5871 5870 5869 5868 5868 5867 5867 5866 5866 5865 5865 5864 5864 5863 5863 5862 5862
5892 5892 5891 5890 5890 5889 5889 5888 5887 5886 5885 5884 5883 5882 5881 5881 5879 5878 5877 5876 5875 5874 5873 5872 5871 5869 5868 5867 5866 5865 5865 5864 5863 5863 5862 5861 5861 5860 5860 5859 5859 5858 5858
5893 5892 5891 5891 5890 5889 5888 5887 5886 5885 5884 5882 5881 5881 5880 5879 5877 5876 5875 5874 5873 5872 5871 5869 5868 5867 5866 5864 5863 5862 5861 5860 5860 5859 5858 5858 5857 5856 5856 5855 5855 5854 5853
5893 5892 5891 5890 5889 5888 5887 5886 5885 5884 5883 5881 5880 5879 5877 5876 5875 5874 5873 5872 5871 5870 5868 5867 5866 5864 5863 5862 5861 5860 5859 5857 5857 5856 5855 5854 5853 5853 5852 5851 5851 5850 5849
5893 5892 5891 5890 5889 5888 5887 5885 5884 5882 5881 5880 5878 5877 5876 5875 5874 5872 5871 5870 5868 5867 5866 5864 5863 5862 5861 5859 5859 5857 5856 5855 5854 5853 5852 5850 5850 5849 5848 5847 5846 5845 5845
5893 5892 5891 5889 5888 5887 5885 5884 5883 5881 5879 5878 5877 5875 5874 5873 5872 5870 5869 5868 5866 5865 5863 5862 5861 5859 5858 5857 5856 5855 5853 5852 5851 5850 5848 5847 5846 5845 5844 5843 5842 5841 5840
5892 5891 5890 5889 5888 5886 5885 5883 5881 5880 5878 5876 5875 5874 5872 5871 5870 5868 5867 5865 5864 5863 5861 5860 5858 5856 5855 5854 5853 5852 5850 5849 5848 5846 5845 5843 5842 5841 5840 5839 5838 5837 5835
5892 5891 5889 5888 5886 5885 5883 5882 5880 5878 5877 5875 5873 5872 5870 5869 5867 5866 5865 5863 5862 5860 5858 5857 5855 5853 5852 5851 5849 5848 5847 5846 5844 5843 5841 5840 5838 5837 5836 5835 5833 5832 5831
5891 5889 5888 5887 5885 5884 5882 5880 5879 5877 5875 5873 5871 5870 5868 5866 5865 5863 5862 5860 5859 5857 5855 5854 5852 5850 5849 5847 5846 5844 5843 5842 5840 5839 5838 5836 5835 5833 5832 5830 5829 5828 5826
5889 5888 5886 5885 5884 5882 5881 5879 5877 5875 5873 5871 5869 5868 5866 5864 5862 5860 5859 5857 5856 5854 5852 5850 5848 5847 5845 5844 5842 5841 5839 5838 5836 5835 5834 5832 5831 5829 5828 5826 5824 5823 5821
5888 5886 5885 5883 5882 5880 5879 5877 5875 5873 5871 5869 5867 5865 5863 5862 5859 5857 5855 5854 5852 5850 5849 5847 5845 5843 5841 5839 5838 5837 5835 5834 5832 5831 5829 5828 5826 5824 5823 5821 5819 5817 5815
5886 5885 5883 5881 5880 5878 5877 5875 5873 5871 5869 5867 5865 5863 5861 5858 5856 5854 5852 5850 5848 5846 5845 5843 5840 5838 5837 5835 5834 5832 5831 5830 5828 5826 5825 5823 5821 5820 5818 5816 5814 5811 5809
5885 5883 5881 5879 5878 5876 5874 5872 5870 5868 5866 5864 5862 5860 5857 5855 5853 5850 5848 5846 5844 5842 5840 5838 5836 5834 5832 5831 5830 5828 5827 5825 5823 5822 5820 5818 5816 5814 5812 5810 5808 5806 5803
5882 5881 5879 5877 5875 5873 5872 5869 5868 5866 5863 5861 5859 5856 5854 5851 5849 5847 5844 5842 5840 5838 5836 5834 5832 5830 5828 5826 5825 5823 5822 5820 5818 5816 5815 5813 5811 5809 5806 5804 5801 5799 5797
5880 5879 5877 5875 5873 5871 5869 5867 5864 5862 5860 5858 5855 5853 5850 5848 5845 5842 5840 5838 5836 5833 5831 5829 5827 5825 5823 5821 5820 5818 5816 5815 5813 5811 5809 5807 5805 5802 5800 5797 5795 5792 5790
5877 5876 5873 5872 5870 5868 5866 5863 5861 5859 5856 5854 5851 5849 5846 5843 5841 5838 5836 5833 5831 5829 5827 5824 5823 5821 5819 5817 5815 5813 5811 5809 5807 5805 5803 5801 5798 5796 5793 5790 5788 5785 5782
5875 5873 5871 5869 5867 5864 5862 5859 5857 5855 5852 5849 5847 5844 5842 5839 5836 5833 5831 5828 5826 5823 5821 5819 5817 5815 5813 5811 5809 5807 5805 5803 5801 5799 5796 5794 5791 5789 5786 5783 5780 5777 5774
5871 5869 5867 5865 5863 5860 5858 5855 5852 5850 5848 5845 5842 5840 5837 5834 5831 5828 5826 5823 5820 5818 5816 5813 5811 5809 5807 5805 5802 5800 5798 5796 5794 5791 5789 5787 5784 5781 5778 5775 5772 5769 5766
5867 5865 5862 5861 5859 5856 5854 5851 5848 5845 5843 5840 5838 5835 5832 5829 5826 5823 5821 5818 5815 5812 5810 5807 5805 5802 5800 5798 5796 5794 5791 5789 5786 5784 5781 5779 5776 5773 5770 5767 5764 5760 5757